Location: Anciles
(42.5833°N, 0.5167°E)
Time: 06:20:04
(UTC+00:00)

Meteor 2-4 Rocket - Pass Details

Date: 10 December 2019
Orbit: 798 x 909 km, 81.2° (Epoch: 19 January)

Event Time Altitude Azimuth Distance (km) Brightness Sun altitude
Rises 19:19:17 0° 196° (SSW) 3,521 7.1 -31.3°
Reaches altitude 10° 19:21:46 10° 198° (SSW) 2,579 6.4 -31.7°
Enters shadow 19:26:24 53° 225° (SW) 1,091 4.3 -32.6°
